{"data":{"norad_id":40965,"epoch":"2026-05-24T20:02:59.708256Z","epoch_age_seconds":85120,"freshness":"FRESH","line1":"1 40965U 15058B   26144.83541329  .00002766  00000+0  25064-3 0  9995","line2":"2 40965  64.7681 335.2295 0130048  72.4588 289.0684 14.91305165362178","mean_motion":14.91305165,"eccentricity":0.0130048,"inclination_deg":64.7681,"raan_deg":335.2295,"arg_perigee_deg":72.4588,"mean_anomaly_deg":289.0684,"bstar":0.00025064,"rev_number":36217,"period_min":96.559713853066,"perigee_km":503.19535472724,"apogee_km":684.53433389706,"semimajor_km":6972.0018443122,"source":"CELESTRAK","updated_at":"2026-05-25T13:38:25.524842Z"}}